Time,TemperatureF,DewpointF,PressureIn,WindDirection,WindDirectionDegrees,WindSpeedMPH,WindSpeedGustMPH,Humidity,HourlyPrecipIn,Conditions,Clouds,dailyrainin,SoftwareType,DateUTC
2013-11-20 00:01:00,33.4,19.0,30.35,ENE,76,0.0,0.0,55,0.00,,---,0.00,VWS V13.01,2013-11-20 05:01:00,
2013-11-20 00:02:00,33.3,18.9,30.35,ENE,76,0.0,3.1,55,0.00,,---,0.00,VWS V13.01,2013-11-20 05:02:00,
2013-11-20 00:03:00,33.3,18.9,30.35,ENE,76,3.1,3.1,55,0.00,,---,0.00,VWS V13.01,2013-11-20 05:03:00,
2013-11-20 00:05:00,33.3,18.9,30.35,ENE,76,2.7,4.9,55,0.00,,---,0.00,VWS V13.01,2013-11-20 05:05:00,
2013-11-20 00:06:00,33.3,18.9,30.35,ENE,76,0.0,3.1,55,0.00,,---,0.00,VWS V13.01,2013-11-20 05:06:00,
2013-11-20 00:11:00,33.1,18.7,30.35,ENE,76,4.9,5.4,55,0.00,,---,0.00,VWS V13.01,2013-11-20 05:11:00,
2013-11-20 00:12:00,33.1,18.7,30.35,ENE,75,3.6,5.8,55,0.00,,---,0.00,VWS V13.01,2013-11-20 05:12:00,
2013-11-20 00:17:00,33.1,18.7,30.35,ENE,75,3.1,4.0,55,0.00,,---,0.00,VWS V13.01,2013-11-20 05:17:00,
2013-11-20 00:22:00,32.9,18.5,30.35,ENE,75,2.7,3.1,55,0.00,,---,0.00,VWS V13.01,2013-11-20 05:22:00,
2013-11-20 00:27:00,32.7,18.4,30.35,ENE,75,2.7,3.1,55,0.00,,---,0.00,VWS V13.01,2013-11-20 05:27:00,
2013-11-20 00:32:00,32.5,18.2,30.35,ENE,75,0.0,0.0,55,0.00,,---,0.00,VWS V13.01,2013-11-20 05:32:00,
2013-11-20 00:37:00,32.4,18.0,30.35,ENE,75,0.0,0.0,55,0.00,,---,0.00,VWS V13.01,2013-11-20 05:37:00,
2013-11-20 00:42:00,32.5,18.6,30.35,ENE,75,0.0,0.0,56,0.00,,---,0.00,VWS V13.01,2013-11-20 05:42:00,
2013-11-20 00:47:00,32.4,18.0,30.35,ENE,75,0.0,0.0,55,0.00,,---,0.00,VWS V13.01,2013-11-20 05:47:00,
2013-11-20 00:52:00,32.2,17.8,30.35,ENE,75,0.0,3.1,55,0.00,,---,0.00,VWS V13.01,2013-11-20 05:52:00,
2013-11-20 00:57:00,32.2,17.8,30.35,ENE,75,0.0,3.6,55,0.00,,---,0.00,VWS V13.01,2013-11-20 05:57:00,
2013-11-20 01:02:00,32.4,18.8,30.35,ENE,75,0.0,0.0,57,0.00,,---,0.00,VWS V13.01,2013-11-20 06:02:00,
2013-11-20 01:07:00,32.5,19.0,30.35,ENE,75,0.0,0.0,57,0.00,,---,0.00,VWS V13.01,2013-11-20 06:07:00,
2013-11-20 01:12:00,32.5,19.0,30.35,ENE,75,2.7,3.1,57,0.00,,---,0.00,VWS V13.01,2013-11-20 06:12:00,
2013-11-20 01:18:00,32.5,18.6,30.35,ENE,74,3.1,4.0,56,0.00,,---,0.00,VWS V13.01,2013-11-20 06:18:00,
2013-11-20 01:23:00,32.4,18.4,30.35,ENE,74,0.0,3.6,56,0.00,,---,0.00,VWS V13.01,2013-11-20 06:23:00,
2013-11-20 01:28:00,32.2,18.3,30.35,ENE,75,3.1,3.6,56,0.00,,---,0.00,VWS V13.01,2013-11-20 06:28:00,
2013-11-20 01:33:00,32.2,18.3,30.35,ENE,75,2.7,4.5,56,0.00,,---,0.00,VWS V13.01,2013-11-20 06:33:00,
2013-11-20 01:38:00,32.2,18.3,30.35,ENE,75,0.0,2.7,56,0.00,,---,0.00,VWS V13.01,2013-11-20 06:38:00,
2013-11-20 01:43:00,32.0,18.1,30.35,ENE,75,4.5,4.5,56,0.00,,---,0.00,VWS V13.01,2013-11-20 06:43:00,
2013-11-20 01:48:00,32.0,18.1,30.35,ENE,75,3.1,4.0,56,0.00,,---,0.00,VWS V13.01,2013-11-20 06:48:00,
2013-11-20 01:53:00,32.0,18.1,30.35,ENE,76,3.6,5.8,56,0.00,,---,0.00,VWS V13.01,2013-11-20 06:53:00,
2013-11-20 01:58:00,32.0,18.1,30.35,ENE,76,0.0,2.7,56,0.00,,---,0.00,VWS V13.01,2013-11-20 06:58:00,
2013-11-20 02:03:00,31.8,17.9,30.35,ENE,76,0.0,0.0,56,0.00,,---,0.00,VWS V13.01,2013-11-20 07:03:00,
2013-11-20 02:08:00,31.8,18.3,30.35,ENE,76,0.0,4.0,57,0.00,,---,0.00,VWS V13.01,2013-11-20 07:08:00,
2013-11-20 02:13:00,31.8,18.3,30.35,ENE,66,3.6,6.3,57,0.00,,---,0.00,VWS V13.01,2013-11-20 07:13:00,
2013-11-20 02:19:00,31.8,18.3,30.35,ENE,63,2.7,5.8,57,0.00,,---,0.00,VWS V13.01,2013-11-20 07:19:00,
2013-11-20 02:24:00,31.8,18.3,30.35,ENE,61,2.7,4.0,57,0.00,,---,0.00,VWS V13.01,2013-11-20 07:24:00,
2013-11-20 02:29:00,32.0,18.9,30.35,ENE,61,0.0,0.0,58,0.00,,---,0.00,VWS V13.01,2013-11-20 07:29:00,
2013-11-20 02:34:00,32.0,18.9,30.35,ENE,62,0.0,0.0,58,0.00,,---,0.00,VWS V13.01,2013-11-20 07:34:00,
2013-11-20 02:39:00,32.0,18.9,30.35,ENE,62,0.0,0.0,58,0.00,,---,0.00,VWS V13.01,2013-11-20 07:39:00,
2013-11-20 02:44:00,31.6,18.2,30.35,ENE,62,0.0,0.0,57,0.00,,---,0.00,VWS V13.01,2013-11-20 07:44:00,
2013-11-20 02:49:00,31.5,18.0,30.35,ENE,62,0.0,0.0,57,0.00,,---,0.00,VWS V13.01,2013-11-20 07:49:00,
2013-11-20 02:54:00,31.3,17.8,30.35,ENE,62,0.0,0.0,57,0.00,,---,0.00,VWS V13.01,2013-11-20 07:54:00,
2013-11-20 02:59:00,31.1,17.7,30.35,ENE,62,0.0,0.0,57,0.00,,---,0.00,VWS V13.01,2013-11-20 07:59:00,
2013-11-20 03:04:00,30.9,17.5,30.35,ENE,62,2.7,3.1,57,0.00,,---,0.00,VWS V13.01,2013-11-20 08:04:00,
2013-11-20 03:09:00,30.9,17.5,30.35,ENE,62,0.0,0.0,57,0.00,,---,0.00,VWS V13.01,2013-11-20 08:09:00,
2013-11-20 03:14:00,30.9,17.5,30.35,ENE,62,0.0,0.0,57,0.00,,---,0.00,VWS V13.01,2013-11-20 08:14:00,
2013-11-20 03:19:00,30.9,17.5,30.35,ENE,62,0.0,0.0,57,0.00,,---,0.00,VWS V13.01,2013-11-20 08:19:00,
2013-11-20 03:24:00,30.7,17.3,30.35,ENE,62,0.0,0.0,57,0.00,,---,0.00,VWS V13.01,2013-11-20 08:24:00,
2013-11-20 03:29:00,30.7,17.3,30.35,ENE,62,0.0,0.0,57,0.00,,---,0.00,VWS V13.01,2013-11-20 08:29:00,
2013-11-20 03:34:00,30.6,17.1,30.35,ENE,62,0.0,0.0,57,0.00,,---,0.00,VWS V13.01,2013-11-20 08:34:00,
2013-11-20 03:39:00,30.4,17.0,30.35,ENE,62,0.0,0.0,57,0.00,,---,0.00,VWS V13.01,2013-11-20 08:39:00,
2013-11-20 03:44:00,30.4,17.0,30.35,ENE,62,0.0,0.0,57,0.00,,---,0.00,VWS V13.01,2013-11-20 08:44:00,
2013-11-20 03:50:00,30.2,16.8,30.35,ENE,62,0.0,0.0,57,0.00,,---,0.00,VWS V13.01,2013-11-20 08:50:00,
2013-11-20 03:55:00,30.0,16.6,30.35,ENE,62,0.0,0.0,57,0.00,,---,0.00,VWS V13.01,2013-11-20 08:55:00,
2013-11-20 04:00:00,29.8,16.5,30.35,ENE,62,0.0,0.0,57,0.00,,---,0.00,VWS V13.01,2013-11-20 09:00:00,
2013-11-20 04:05:00,29.8,16.9,30.35,ENE,63,0.0,0.0,58,0.00,,---,0.00,VWS V13.01,2013-11-20 09:05:00,
2013-11-20 04:10:00,29.8,17.3,30.35,ENE,63,0.0,0.0,59,0.00,,---,0.00,VWS V13.01,2013-11-20 09:10:00,
2013-11-20 04:15:00,30.2,18.0,30.35,NNE,19,3.1,3.6,60,0.00,,---,0.00,VWS V13.01,2013-11-20 09:15:00,
2013-11-20 04:20:00,30.2,18.0,30.35,NNE,19,0.0,0.0,60,0.00,,---,0.00,VWS V13.01,2013-11-20 09:20:00,
2013-11-20 04:25:00,30.4,18.2,30.35,NNE,19,0.0,0.0,60,0.00,,---,0.00,VWS V13.01,2013-11-20 09:25:00,
2013-11-20 04:30:00,30.2,18.0,30.35,NNE,20,0.0,0.0,60,0.00,,---,0.00,VWS V13.01,2013-11-20 09:30:00,
2013-11-20 04:35:00,30.2,18.0,30.35,NNE,20,0.0,0.0,60,0.00,,---,0.00,VWS V13.01,2013-11-20 09:35:00,
2013-11-20 04:40:00,30.2,18.0,30.35,NNE,20,2.7,3.6,60,0.00,,---,0.00,VWS V13.01,2013-11-20 09:40:00,
2013-11-20 04:45:00,30.0,17.8,30.35,NNE,23,3.1,4.5,60,0.00,,---,0.00,VWS V13.01,2013-11-20 09:45:00,
2013-11-20 04:50:00,29.8,17.3,30.35,NNE,24,0.0,0.0,59,0.00,,---,0.00,VWS V13.01,2013-11-20 09:50:00,
2013-11-20 04:55:00,29.8,17.3,30.35,NNE,25,0.0,0.0,59,0.00,,---,0.00,VWS V13.01,2013-11-20 09:55:00,
2013-11-20 05:00:00,29.8,17.3,30.35,NNE,27,3.6,4.0,59,0.00,,---,0.00,VWS V13.01,2013-11-20 10:00:00,
2013-11-20 05:05:00,30.0,17.4,30.35,NNE,27,0.0,0.0,59,0.00,,---,0.00,VWS V13.01,2013-11-20 10:05:00,
2013-11-20 05:10:00,29.8,17.3,30.35,NNE,27,0.0,0.0,59,0.00,,---,0.00,VWS V13.01,2013-11-20 10:10:00,
2013-11-20 05:15:00,29.8,17.3,30.35,NNE,29,0.0,3.6,59,0.00,,---,0.00,VWS V13.01,2013-11-20 10:15:00,
2013-11-20 05:20:00,29.8,17.3,30.35,NNE,30,0.0,0.0,59,0.00,,---,0.00,VWS V13.01,2013-11-20 10:20:00,
2013-11-20 05:25:00,29.8,17.3,30.35,NNE,31,2.7,4.0,59,0.00,,---,0.00,VWS V13.01,2013-11-20 10:25:00,
2013-11-20 05:30:00,29.8,17.3,30.35,NNE,31,0.0,0.0,59,0.00,,---,0.00,VWS V13.01,2013-11-20 10:30:00,
2013-11-20 05:35:00,30.0,17.8,30.35,NNE,31,0.0,0.0,60,0.00,,---,0.00,VWS V13.01,2013-11-20 10:35:00,
2013-11-20 05:40:00,30.2,18.4,30.35,NNE,31,0.0,0.0,61,0.00,,---,0.00,VWS V13.01,2013-11-20 10:40:00,
2013-11-20 05:45:00,30.0,18.2,30.35,NNE,31,0.0,0.0,61,0.00,,---,0.00,VWS V13.01,2013-11-20 10:45:00,
2013-11-20 05:50:00,30.2,18.8,30.35,NE,34,3.1,3.6,62,0.00,,---,0.00,VWS V13.01,2013-11-20 10:50:00,
2013-11-20 05:55:00,30.4,18.9,30.35,NE,37,0.0,2.7,62,0.00,,---,0.00,VWS V13.01,2013-11-20 10:55:00,
2013-11-20 06:00:00,30.6,19.1,30.35,NE,37,2.7,4.5,62,0.00,,---,0.00,VWS V13.01,2013-11-20 11:00:00,
2013-11-20 06:05:00,30.9,19.8,30.35,NE,39,3.1,4.5,63,0.00,,---,0.00,VWS V13.01,2013-11-20 11:05:00,
2013-11-20 06:10:00,31.3,20.2,30.35,NE,39,3.1,4.0,63,0.00,,---,0.00,VWS V13.01,2013-11-20 11:10:00,
2013-11-20 06:15:00,31.3,20.2,30.35,ENE,66,5.4,5.4,63,0.00,,---,0.00,VWS V13.01,2013-11-20 11:15:00,
2013-11-20 06:20:00,31.3,19.8,30.35,ENE,58,4.5,5.4,62,0.00,,---,0.00,VWS V13.01,2013-11-20 11:20:00,
2013-11-20 06:25:00,31.5,19.6,30.35,NE,48,4.5,4.9,61,0.00,,---,0.00,VWS V13.01,2013-11-20 11:25:00,
2013-11-20 06:31:00,31.3,19.4,30.35,ENE,67,3.6,6.3,61,0.00,,---,0.00,VWS V13.01,2013-11-20 11:31:00,
2013-11-20 06:36:00,31.3,19.4,30.35,NE,37,3.1,4.9,61,0.00,,---,0.00,VWS V13.01,2013-11-20 11:36:00,
2013-11-20 06:41:00,31.5,19.6,30.35,ENE,61,3.1,5.8,61,0.00,,---,0.00,VWS V13.01,2013-11-20 11:41:00,
2013-11-20 06:46:00,31.3,19.0,30.35,NE,40,3.6,6.3,60,0.00,,---,0.00,VWS V13.01,2013-11-20 11:46:00,
2013-11-20 06:51:00,31.3,19.0,30.35,NNE,18,5.4,5.4,60,0.00,,---,0.00,VWS V13.01,2013-11-20 11:51:00,
2013-11-20 06:56:00,31.3,19.0,30.35,NE,50,4.9,5.8,60,0.00,,---,0.00,VWS V13.01,2013-11-20 11:56:00,
2013-11-20 07:01:00,31.3,19.0,30.35,NE,43,4.5,4.9,60,0.00,,---,0.00,VWS V13.01,2013-11-20 12:01:00,
2013-11-20 07:06:00,31.1,18.5,30.35,NE,37,4.0,6.7,59,0.00,,---,0.00,VWS V13.01,2013-11-20 12:06:00,
2013-11-20 07:11:00,31.1,18.5,30.35,NE,45,5.4,6.3,59,0.00,,---,0.00,VWS V13.01,2013-11-20 12:11:00,
2013-11-20 07:16:00,31.1,18.5,30.35,NE,53,0.0,4.5,59,0.00,,---,0.00,VWS V13.01,2013-11-20 12:16:00,
2013-11-20 07:21:00,31.1,18.5,30.35,NE,51,3.6,5.8,59,0.00,,---,0.00,VWS V13.01,2013-11-20 12:21:00,
2013-11-20 07:26:00,31.1,18.5,30.35,NE,53,5.4,6.3,59,0.00,,---,0.00,VWS V13.01,2013-11-20 12:26:00,
2013-11-20 07:31:00,30.9,18.3,30.35,East,79,5.4,5.4,59,0.00,,---,0.00,VWS V13.01,2013-11-20 12:31:00,
2013-11-20 07:36:00,31.1,18.5,30.35,ENE,61,4.0,7.4,59,0.00,,---,0.00,VWS V13.01,2013-11-20 12:36:00,
2013-11-20 07:41:00,30.9,18.3,30.35,NE,54,4.5,5.8,59,0.00,,---,0.00,VWS V13.01,2013-11-20 12:41:00,
2013-11-20 07:46:00,31.1,18.5,30.35,ENE,58,3.6,6.3,59,0.00,,---,0.00,VWS V13.01,2013-11-20 12:46:00,
2013-11-20 07:51:00,31.3,18.6,30.35,NE,35,2.7,5.4,59,0.00,,---,0.00,VWS V13.01,2013-11-20 12:51:00,
2013-11-20 07:56:00,31.5,18.8,30.35,ENE,61,3.1,5.4,59,0.00,,---,0.00,VWS V13.01,2013-11-20 12:56:00,
2013-11-20 08:01:00,31.5,18.8,30.35,ENE,57,4.9,6.3,59,0.00,,---,0.00,VWS V13.01,2013-11-20 13:01:00,
2013-11-20 08:06:00,31.6,19.0,30.35,ENE,67,4.5,6.3,59,0.00,,---,0.00,VWS V13.01,2013-11-20 13:06:00,
2013-11-20 08:12:00,32.0,19.3,30.35,ENE,72,6.3,6.7,59,0.00,,---,0.00,VWS V13.01,2013-11-20 13:12:00,
2013-11-20 08:17:00,32.2,19.1,30.35,ENE,76,4.9,5.8,58,0.00,,---,0.00,VWS V13.01,2013-11-20 13:17:00,
2013-11-20 08:22:00,32.2,19.1,30.35,ENE,72,5.4,6.9,58,0.00,,---,0.00,VWS V13.01,2013-11-20 13:22:00,
2013-11-20 08:27:00,32.4,19.2,30.35,ENE,68,5.8,6.3,58,0.00,,---,0.00,VWS V13.01,2013-11-20 13:27:00,
2013-11-20 08:32:00,32.5,19.4,30.35,East,80,4.5,5.8,58,0.00,,---,0.00,VWS V13.01,2013-11-20 13:32:00,
2013-11-20 08:37:00,32.7,19.6,30.35,ENE,69,3.1,6.3,58,0.00,,---,0.00,VWS V13.01,2013-11-20 13:37:00,
2013-11-20 08:42:00,32.9,19.4,30.35,East,88,5.4,6.9,57,0.00,,---,0.00,VWS V13.01,2013-11-20 13:42:00,
2013-11-20 08:47:00,33.1,19.5,30.35,NE,55,5.8,5.8,57,0.00,,---,0.00,VWS V13.01,2013-11-20 13:47:00,
2013-11-20 08:52:00,33.4,19.9,30.35,NE,37,2.7,5.4,57,0.00,,---,0.00,VWS V13.01,2013-11-20 13:52:00,
2013-11-20 08:57:00,33.8,20.2,30.35,ENE,74,7.8,8.3,57,0.00,,---,0.00,VWS V13.01,2013-11-20 13:57:00,
2013-11-20 09:02:00,34.2,20.5,30.35,NE,53,5.8,9.2,57,0.00,,---,0.00,VWS V13.01,2013-11-20 14:02:00,
2013-11-20 09:07:00,34.3,20.3,30.32,ENE,64,10.1,10.1,56,0.00,,---,0.00,VWS V13.01,2013-11-20 14:07:00,
2013-11-20 09:12:00,34.5,20.5,30.32,East,95,6.3,7.4,56,0.00,,---,0.00,VWS V13.01,2013-11-20 14:12:00,
2013-11-20 09:18:00,34.9,19.9,30.32,NE,53,3.6,6.9,54,0.00,,---,0.00,VWS V13.01,2013-11-20 14:18:00,
2013-11-20 09:23:00,35.1,20.1,30.32,NE,47,4.0,7.8,54,0.00,,---,0.00,VWS V13.01,2013-11-20 14:23:00,
2013-11-20 09:28:00,35.4,20.4,30.32,NE,47,6.9,8.7,54,0.00,,---,0.00,VWS V13.01,2013-11-20 14:28:00,
2013-11-20 09:33:00,35.6,20.2,30.32,ENE,61,6.3,8.7,53,0.00,,---,0.00,VWS V13.01,2013-11-20 14:33:00,
2013-11-20 09:38:00,35.8,20.3,30.32,ENE,62,5.4,10.5,53,0.00,,---,0.00,VWS V13.01,2013-11-20 14:38:00,
2013-11-20 09:43:00,35.8,19.9,30.32,East,81,6.9,8.7,52,0.00,,---,0.00,VWS V13.01,2013-11-20 14:43:00,
2013-11-20 09:48:00,36.0,20.1,30.32,East,97,11.0,11.0,52,0.00,,---,0.00,VWS V13.01,2013-11-20 14:48:00,
2013-11-20 09:53:00,36.0,20.1,30.32,East,80,7.4,9.2,52,0.00,,---,0.00,VWS V13.01,2013-11-20 14:53:00,
2013-11-20 09:59:00,36.3,20.4,30.32,ESE,119,5.4,10.1,52,0.00,,---,0.00,VWS V13.01,2013-11-20 14:59:00,
2013-11-20 10:04:00,36.7,20.7,30.32,East,80,8.7,11.2,52,0.00,,---,0.00,VWS V13.01,2013-11-20 15:04:00,
2013-11-20 10:09:00,36.9,20.4,30.32,East,80,6.9,9.2,51,0.00,,---,0.00,VWS V13.01,2013-11-20 15:09:00,
2013-11-20 10:15:00,37.4,20.9,30.32,ENE,76,8.7,8.7,51,0.00,,---,0.00,VWS V13.01,2013-11-20 15:15:00,
2013-11-20 10:20:00,37.6,20.6,30.32,ESE,109,4.9,7.4,50,0.00,,---,0.00,VWS V13.01,2013-11-20 15:20:00,
2013-11-20 10:25:00,37.8,20.8,30.32,East,88,11.0,11.0,50,0.00,,---,0.00,VWS V13.01,2013-11-20 15:25:00,
2013-11-20 10:31:00,38.1,21.1,30.32,NE,47,6.9,11.0,50,0.00,,---,0.00,VWS V13.01,2013-11-20 15:31:00,
2013-11-20 10:36:00,37.9,20.0,30.32,NE,44,8.3,12.1,48,0.00,,---,0.00,VWS V13.01,2013-11-20 15:36:00,
2013-11-20 10:41:00,38.1,20.2,30.32,East,99,10.5,12.5,48,0.00,,---,0.00,VWS V13.01,2013-11-20 15:41:00,
2013-11-20 10:46:00,38.1,20.7,30.32,East,82,8.7,13.0,49,0.00,,---,0.00,VWS V13.01,2013-11-20 15:46:00,
2013-11-20 10:51:00,38.1,20.7,30.32,East,82,10.5,12.5,49,0.00,,---,0.00,VWS V13.01,2013-11-20 15:51:00,
2013-11-20 10:56:00,38.3,19.9,30.32,ESE,105,8.7,13.4,47,0.00,,---,0.00,VWS V13.01,2013-11-20 15:56:00,
2013-11-20 11:01:00,38.7,20.7,30.32,East,80,11.0,11.2,48,0.00,,---,0.00,VWS V13.01,2013-11-20 16:01:00,
2013-11-20 11:07:00,39.2,20.7,30.32,East,88,9.6,14.3,47,0.00,,---,0.00,VWS V13.01,2013-11-20 16:07:00,
2013-11-20 11:13:00,39.2,19.7,30.32,East,93,8.7,14.3,45,0.00,,---,0.00,VWS V13.01,2013-11-20 16:13:00,
2013-11-20 11:18:00,39.2,19.7,30.29,East,100,8.3,10.1,45,0.00,,---,0.00,VWS V13.01,2013-11-20 16:18:00,
2013-11-20 11:23:00,39.6,20.0,30.29,East,86,9.2,13.0,45,0.00,,---,0.00,VWS V13.01,2013-11-20 16:23:00,
2013-11-20 11:28:00,39.7,20.1,30.29,East,91,4.9,8.3,45,0.00,,---,0.00,VWS V13.01,2013-11-20 16:28:00,
2013-11-20 11:33:00,40.1,20.0,30.29,ENE,65,10.1,13.0,44,0.00,,---,0.00,VWS V13.01,2013-11-20 16:33:00,
2013-11-20 11:38:00,40.5,19.7,30.29,ESE,113,8.3,11.2,43,0.00,,---,0.00,VWS V13.01,2013-11-20 16:38:00,
2013-11-20 11:43:00,41.2,20.4,30.29,East,79,4.9,8.7,43,0.00,,---,0.00,VWS V13.01,2013-11-20 16:43:00,
2013-11-20 11:48:00,42.1,20.7,30.29,ENE,76,8.7,11.6,42,0.00,,---,0.00,VWS V13.01,2013-11-20 16:48:00,
2013-11-20 11:54:00,42.8,20.2,30.29,East,84,7.8,10.5,40,0.00,,---,0.00,VWS V13.01,2013-11-20 16:54:00,
2013-11-20 11:59:00,43.0,20.3,30.29,East,79,8.7,10.5,40,0.00,,---,0.00,VWS V13.01,2013-11-20 16:59:00,
2013-11-20 12:05:00,43.3,20.6,30.29,ENE,75,9.2,11.2,40,0.00,,---,0.00,VWS V13.01,2013-11-20 17:05:00,
2013-11-20 12:10:00,43.7,20.4,30.29,ENE,58,4.9,5.8,39,0.00,,---,0.00,VWS V13.01,2013-11-20 17:10:00,
2013-11-20 12:15:00,44.2,20.9,30.29,ESE,106,6.7,8.3,39,0.00,,---,0.00,VWS V13.01,2013-11-20 17:15:00,
2013-11-20 12:20:00,44.8,20.7,30.29,East,84,5.4,7.8,38,0.00,,---,0.00,VWS V13.01,2013-11-20 17:20:00,
2013-11-20 12:25:00,45.5,20.8,30.29,ENE,73,8.3,9.6,37,0.00,,---,0.00,VWS V13.01,2013-11-20 17:25:00,
2013-11-20 12:30:00,45.9,21.1,30.29,East,80,6.9,9.6,37,0.00,,---,0.00,VWS V13.01,2013-11-20 17:30:00,
2013-11-20 12:35:00,46.4,21.6,30.26,ESE,113,6.9,7.8,37,0.00,,---,0.00,VWS V13.01,2013-11-20 17:35:00,
2013-11-20 12:40:00,46.8,19.9,30.26,East,79,6.3,9.6,34,0.00,,---,0.00,VWS V13.01,2013-11-20 17:40:00,
2013-11-20 12:45:00,47.7,20.7,30.26,East,89,4.5,8.7,34,0.00,,---,0.00,VWS V13.01,2013-11-20 17:45:00,
2013-11-20 12:50:00,48.0,19.6,30.26,East,86,7.4,7.8,32,0.00,,---,0.00,VWS V13.01,2013-11-20 17:50:00,
2013-11-20 12:55:00,48.0,18.8,30.26,East,80,7.4,10.5,31,0.00,,---,0.00,VWS V13.01,2013-11-20 17:55:00,
2013-11-20 13:00:00,47.8,18.7,30.26,East,96,9.6,9.6,31,0.00,,---,0.00,VWS V13.01,2013-11-20 18:00:00,
2013-11-20 13:05:00,48.0,18.8,30.26,East,97,5.4,7.8,31,0.00,,---,0.00,VWS V13.01,2013-11-20 18:05:00,
2013-11-20 13:10:00,48.7,20.2,30.26,ENE,72,6.9,8.7,32,0.00,,---,0.00,VWS V13.01,2013-11-20 18:10:00,
2013-11-20 13:15:00,48.7,18.7,30.26,East,92,5.4,11.0,30,0.00,,---,0.00,VWS V13.01,2013-11-20 18:15:00,
2013-11-20 13:20:00,47.8,18.7,30.26,ENE,75,5.8,8.3,31,0.00,,---,0.00,VWS V13.01,2013-11-20 18:20:00,
2013-11-20 13:25:00,47.8,20.1,30.26,SE,133,6.7,7.8,33,0.00,,---,0.00,VWS V13.01,2013-11-20 18:25:00,
2013-11-20 13:30:00,48.7,19.5,30.26,East,83,6.7,9.6,31,0.00,,---,0.00,VWS V13.01,2013-11-20 18:30:00,
2013-11-20 13:35:00,49.5,19.3,30.23,ESE,102,8.7,8.7,30,0.00,,---,0.00,VWS V13.01,2013-11-20 18:35:00,
2013-11-20 13:40:00,49.6,19.5,30.23,East,92,4.0,8.3,30,0.00,,---,0.00,VWS V13.01,2013-11-20 18:40:00,
2013-11-20 13:45:00,49.3,18.4,30.23,ENE,72,9.2,11.0,29,0.00,,---,0.00,VWS V13.01,2013-11-20 18:45:00,
2013-11-20 13:50:00,49.5,19.3,30.23,NE,51,7.4,9.6,30,0.00,,---,0.00,VWS V13.01,2013-11-20 18:50:00,
2013-11-20 13:55:00,49.8,19.6,30.23,East,96,11.2,11.2,30,0.00,,---,0.00,VWS V13.01,2013-11-20 18:55:00,
2013-11-20 14:00:00,50.2,19.2,30.23,NE,56,6.3,7.4,29,0.00,,---,0.00,VWS V13.01,2013-11-20 19:00:00,
2013-11-20 14:06:00,50.9,19.8,30.23,ESE,103,5.4,9.2,29,0.00,,---,0.00,VWS V13.01,2013-11-20 19:06:00,
2013-11-20 14:11:00,51.4,19.4,30.23,East,84,9.2,9.6,28,0.00,,---,0.00,VWS V13.01,2013-11-20 19:11:00,
2013-11-20 14:16:00,52.0,19.9,30.23,SE,126,7.8,8.3,28,0.00,,---,0.00,VWS V13.01,2013-11-20 19:16:00,
2013-11-20 14:22:00,52.3,19.4,30.20,ESE,107,4.5,10.5,27,0.00,,---,0.00,VWS V13.01,2013-11-20 19:22:00,
2013-11-20 14:27:00,52.3,20.2,30.20,East,95,4.0,11.0,28,0.00,,---,0.00,VWS V13.01,2013-11-20 19:27:00,
2013-11-20 14:32:00,52.9,19.8,30.20,ENE,58,6.3,13.0,27,0.00,,---,0.00,VWS V13.01,2013-11-20 19:32:00,
2013-11-20 14:37:00,53.6,20.5,30.20,East,87,8.3,10.1,27,0.00,,---,0.00,VWS V13.01,2013-11-20 19:37:00,
2013-11-20 14:43:00,53.8,20.6,30.20,ESE,106,6.9,11.2,27,0.00,,---,0.00,VWS V13.01,2013-11-20 19:43:00,
2013-11-20 14:48:00,54.1,20.9,30.20,East,91,7.4,10.5,27,0.00,,---,0.00,VWS V13.01,2013-11-20 19:48:00,
2013-11-20 14:53:00,54.1,20.9,30.20,ENE,77,9.2,9.2,27,0.00,,---,0.00,VWS V13.01,2013-11-20 19:53:00,
2013-11-20 14:58:00,54.1,20.9,30.20,ENE,76,4.5,8.3,27,0.00,,---,0.00,VWS V13.01,2013-11-20 19:58:00,
2013-11-20 15:03:00,54.5,20.3,30.20,East,91,6.9,11.0,26,0.00,,---,0.00,VWS V13.01,2013-11-20 20:03:00,
2013-11-20 15:08:00,54.7,20.5,30.20,East,85,6.7,10.1,26,0.00,,---,0.00,VWS V13.01,2013-11-20 20:08:00,
2013-11-20 15:13:00,55.9,21.6,30.20,ENE,71,10.1,10.5,26,0.00,,---,0.00,VWS V13.01,2013-11-20 20:13:00,
2013-11-20 15:18:00,58.1,22.5,30.20,ENE,69,10.1,12.1,25,0.00,,---,0.00,VWS V13.01,2013-11-20 20:18:00,
2013-11-20 15:23:00,58.8,23.1,30.20,East,79,8.3,13.0,25,0.00,,---,0.00,VWS V13.01,2013-11-20 20:23:00,
2013-11-20 15:28:00,57.9,22.3,30.20,ESE,103,6.9,11.6,25,0.00,,---,0.00,VWS V13.01,2013-11-20 20:28:00,
2013-11-20 15:33:00,60.1,23.2,30.20,ENE,75,6.7,8.3,24,0.00,,---,0.00,VWS V13.01,2013-11-20 20:33:00,
2013-11-20 15:38:00,61.0,24.0,30.20,East,82,4.9,8.7,24,0.00,,---,0.00,VWS V13.01,2013-11-20 20:38:00,
2013-11-20 15:43:00,58.3,21.7,30.20,ENE,65,8.7,9.6,24,0.00,,---,0.00,VWS V13.01,2013-11-20 20:43:00,
2013-11-20 15:48:00,55.9,21.6,30.20,NE,49,6.9,9.6,26,0.00,,---,0.00,VWS V13.01,2013-11-20 20:48:00,
2013-11-20 15:53:00,57.6,22.0,30.20,ENE,60,6.3,10.1,25,0.00,,---,0.00,VWS V13.01,2013-11-20 20:53:00,
2013-11-20 15:58:00,58.1,22.5,30.20,ESE,114,6.3,11.0,25,0.00,,---,0.00,VWS V13.01,2013-11-20 20:58:00,
2013-11-20 16:03:00,58.5,22.8,30.17,East,84,7.4,7.4,25,0.00,,---,0.00,VWS V13.01,2013-11-20 21:03:00,
2013-11-20 16:08:00,58.5,22.8,30.17,East,100,6.7,6.9,25,0.00,,---,0.00,VWS V13.01,2013-11-20 21:08:00,
2013-11-20 16:13:00,58.1,22.5,30.17,East,90,8.3,9.6,25,0.00,,---,0.00,VWS V13.01,2013-11-20 21:13:00,
2013-11-20 16:18:00,56.7,21.3,30.17,ESE,105,6.7,10.5,25,0.00,,---,0.00,VWS V13.01,2013-11-20 21:18:00,
2013-11-20 16:23:00,53.8,19.7,30.17,NE,55,8.7,8.7,26,0.00,,---,0.00,VWS V13.01,2013-11-20 21:23:00,
2013-11-20 16:28:00,54.9,21.5,30.17,East,81,5.8,7.8,27,0.00,,---,0.00,VWS V13.01,2013-11-20 21:28:00,
2013-11-20 16:33:00,53.8,20.6,30.17,ENE,69,6.3,7.8,27,0.00,,---,0.00,VWS V13.01,2013-11-20 21:33:00,
2013-11-20 16:38:00,50.9,19.0,30.17,East,79,4.9,9.2,28,0.00,,---,0.00,VWS V13.01,2013-11-20 21:38:00,
2013-11-20 16:43:00,48.9,18.9,30.17,East,80,6.9,8.7,30,0.00,,---,0.00,VWS V13.01,2013-11-20 21:43:00,
2013-11-20 16:48:00,47.3,20.4,30.17,ENE,65,5.4,8.7,34,0.00,,---,0.00,VWS V13.01,2013-11-20 21:48:00,
2013-11-20 16:53:00,46.0,21.2,30.17,East,91,4.5,5.4,37,0.00,,---,0.00,VWS V13.01,2013-11-20 21:53:00,
2013-11-20 16:58:00,45.1,21.1,30.17,ENE,65,5.8,6.7,38,0.00,,---,0.00,VWS V13.01,2013-11-20 21:58:00,
2013-11-20 17:03:00,44.2,20.9,30.17,ENE,75,4.9,7.8,39,0.00,,---,0.00,VWS V13.01,2013-11-20 22:03:00,
2013-11-20 17:08:00,43.7,21.0,30.17,ENE,78,5.8,5.8,40,0.00,,---,0.00,VWS V13.01,2013-11-20 22:08:00,
2013-11-20 17:13:00,43.2,21.1,30.17,East,87,3.6,6.3,41,0.00,,---,0.00,VWS V13.01,2013-11-20 22:13:00,
2013-11-20 17:18:00,43.0,20.9,30.20,East,86,4.0,5.4,41,0.00,,---,0.00,VWS V13.01,2013-11-20 22:18:00,
2013-11-20 17:23:00,42.6,21.1,30.20,East,99,4.0,5.8,42,0.00,,---,0.00,VWS V13.01,2013-11-20 22:23:00,
2013-11-20 17:28:00,42.4,21.5,30.20,East,88,6.3,6.7,43,0.00,,---,0.00,VWS V13.01,2013-11-20 22:28:00,
2013-11-20 17:33:00,42.1,21.8,30.20,East,86,4.9,6.9,44,0.00,,---,0.00,VWS V13.01,2013-11-20 22:33:00,
2013-11-20 17:38:00,41.7,22.0,30.20,East,87,4.0,5.8,45,0.00,,---,0.00,VWS V13.01,2013-11-20 22:38:00,
2013-11-20 17:43:00,41.5,22.3,30.20,East,85,3.6,5.4,46,0.00,,---,0.00,VWS V13.01,2013-11-20 22:43:00,
2013-11-20 17:48:00,41.2,22.0,30.20,East,91,6.3,6.3,46,0.00,,---,0.00,VWS V13.01,2013-11-20 22:48:00,
2013-11-20 17:53:00,41.0,22.3,30.20,East,79,4.9,5.8,47,0.00,,---,0.00,VWS V13.01,2013-11-20 22:53:00,
2013-11-20 17:59:00,41.0,22.8,30.20,East,82,7.8,7.8,48,0.00,,---,0.00,VWS V13.01,2013-11-20 22:59:00,
2013-11-20 18:04:00,41.0,22.8,30.20,East,84,3.6,5.4,48,0.00,,---,0.00,VWS V13.01,2013-11-20 23:04:00,
2013-11-20 18:09:00,41.0,22.8,30.20,East,86,3.6,4.5,48,0.00,,---,0.00,VWS V13.01,2013-11-20 23:09:00,
2013-11-20 18:15:00,41.0,22.8,30.20,ENE,74,4.0,5.4,48,0.00,,---,0.00,VWS V13.01,2013-11-20 23:15:00,
2013-11-20 18:20:00,41.0,22.8,30.20,East,79,3.6,4.9,48,0.00,,---,0.00,VWS V13.01,2013-11-20 23:20:00,
2013-11-20 18:25:00,41.0,22.8,30.20,East,99,4.0,4.9,48,0.00,,---,0.00,VWS V13.01,2013-11-20 23:25:00,
2013-11-20 18:30:00,41.0,23.3,30.20,East,83,4.5,4.5,49,0.00,,---,0.00,VWS V13.01,2013-11-20 23:30:00,
2013-11-20 18:35:00,41.0,23.3,30.20,East,80,3.6,4.9,49,0.00,,---,0.00,VWS V13.01,2013-11-20 23:35:00,
2013-11-20 18:40:00,41.2,23.5,30.20,ENE,66,4.5,4.9,49,0.00,,---,0.00,VWS V13.01,2013-11-20 23:40:00,
2013-11-20 18:45:00,41.2,23.5,30.20,ENE,71,4.5,5.4,49,0.00,,---,0.00,VWS V13.01,2013-11-20 23:45:00,
2013-11-20 18:50:00,41.2,23.5,30.20,East,80,4.9,4.9,49,0.00,,---,0.00,VWS V13.01,2013-11-20 23:50:00,
2013-11-20 18:55:00,41.0,23.3,30.20,ENE,74,4.9,5.4,49,0.00,,---,0.00,VWS V13.01,2013-11-20 23:55:00,
2013-11-20 19:00:00,41.0,23.3,30.20,East,99,4.5,4.9,49,0.00,,---,0.00,VWS V13.01,2013-11-21 00:00:00,
2013-11-20 19:05:00,41.0,23.8,30.20,East,99,4.5,5.8,50,0.00,,---,0.00,VWS V13.01,2013-11-21 00:05:00,
2013-11-20 19:10:00,41.0,23.8,30.20,East,87,5.4,5.8,50,0.00,,---,0.00,VWS V13.01,2013-11-21 00:10:00,
2013-11-20 19:15:00,41.0,23.8,30.20,East,100,4.9,6.3,50,0.00,,---,0.00,VWS V13.01,2013-11-21 00:15:00,
2013-11-20 19:20:00,41.0,23.8,30.20,ENE,69,4.9,4.9,50,0.00,,---,0.00,VWS V13.01,2013-11-21 00:20:00,
2013-11-20 19:25:00,40.8,23.6,30.20,East,85,4.0,4.9,50,0.00,,---,0.00,VWS V13.01,2013-11-21 00:25:00,
2013-11-20 19:30:00,40.8,23.6,30.20,ENE,72,3.1,6.3,50,0.00,,---,0.00,VWS V13.01,2013-11-21 00:30:00,
2013-11-20 19:35:00,41.0,24.3,30.20,East,89,5.4,6.3,51,0.00,,---,0.00,VWS V13.01,2013-11-21 00:35:00,
2013-11-20 19:40:00,41.0,24.3,30.20,ENE,65,3.6,4.5,51,0.00,,---,0.00,VWS V13.01,2013-11-21 00:40:00,
2013-11-20 19:46:00,41.0,24.3,30.20,East,99,3.6,5.4,51,0.00,,---,0.00,VWS V13.01,2013-11-21 00:46:00,
2013-11-20 19:51:00,41.0,24.3,30.20,NE,50,3.1,4.5,51,0.00,,---,0.00,VWS V13.01,2013-11-21 00:51:00,
2013-11-20 19:56:00,41.2,24.4,30.20,ENE,70,4.9,5.8,51,0.00,,---,0.00,VWS V13.01,2013-11-21 00:56:00,
2013-11-20 20:01:00,41.2,24.4,30.20,ENE,64,3.6,4.5,51,0.00,,---,0.00,VWS V13.01,2013-11-21 01:01:00,
2013-11-20 20:06:00,41.2,24.4,30.17,ENE,59,4.5,4.9,51,0.00,,---,0.00,VWS V13.01,2013-11-21 01:06:00,
2013-11-20 20:11:00,41.4,24.6,30.17,ENE,58,3.6,4.9,51,0.00,,---,0.00,VWS V13.01,2013-11-21 01:11:00,
2013-11-20 20:16:00,41.5,24.8,30.17,NE,52,4.5,5.4,51,0.00,,---,0.00,VWS V13.01,2013-11-21 01:16:00,
2013-11-20 20:22:00,41.5,24.8,30.17,ENE,67,3.6,5.8,51,0.00,,---,0.00,VWS V13.01,2013-11-21 01:22:00,
2013-11-20 20:27:00,41.5,24.8,30.17,NNE,18,4.0,6.7,51,0.00,,---,0.00,VWS V13.01,2013-11-21 01:27:00,
2013-11-20 20:32:00,41.5,25.2,30.17,ENE,65,3.6,5.8,52,0.00,,---,0.00,VWS V13.01,2013-11-21 01:32:00,
2013-11-20 20:37:00,41.5,25.2,30.17,East,97,5.4,5.4,52,0.00,,---,0.00,VWS V13.01,2013-11-21 01:37:00,
2013-11-20 20:42:00,41.5,25.2,30.17,ENE,75,5.8,6.3,52,0.00,,---,0.00,VWS V13.01,2013-11-21 01:42:00,
2013-11-20 20:47:00,41.5,25.2,30.17,NE,42,4.9,5.4,52,0.00,,---,0.00,VWS V13.01,2013-11-21 01:47:00,
2013-11-20 20:52:00,41.5,25.2,30.17,ENE,70,4.9,5.4,52,0.00,,---,0.00,VWS V13.01,2013-11-21 01:52:00,
2013-11-20 20:57:00,41.5,25.7,30.17,East,100,6.7,6.7,53,0.00,,---,0.00,VWS V13.01,2013-11-21 01:57:00,
2013-11-20 21:02:00,41.7,25.9,30.17,East,100,4.9,5.8,53,0.00,,---,0.00,VWS V13.01,2013-11-21 02:02:00,
2013-11-20 21:07:00,41.7,25.9,30.17,East,97,4.5,6.3,53,0.00,,---,0.00,VWS V13.01,2013-11-21 02:07:00,
2013-11-20 21:12:00,41.7,25.9,30.17,ENE,68,4.9,5.4,53,0.00,,---,0.00,VWS V13.01,2013-11-21 02:12:00,
2013-11-20 21:17:00,41.7,25.9,30.17,ENE,68,5.8,6.9,53,0.00,,---,0.00,VWS V13.01,2013-11-21 02:17:00,
2013-11-20 21:22:00,41.7,25.9,30.14,ENE,64,5.8,6.9,53,0.00,,---,0.00,VWS V13.01,2013-11-21 02:22:00,
2013-11-20 21:27:00,41.7,25.9,30.14,East,99,5.4,7.8,53,0.00,,---,0.00,VWS V13.01,2013-11-21 02:27:00,
2013-11-20 21:32:00,41.7,26.3,30.14,East,84,4.0,7.4,54,0.00,,---,0.00,VWS V13.01,2013-11-21 02:32:00,
2013-11-20 21:37:00,41.7,26.3,30.17,East,97,5.8,9.2,54,0.00,,---,0.00,VWS V13.01,2013-11-21 02:37:00,
2013-11-20 21:42:00,41.7,26.3,30.17,East,91,3.6,5.4,54,0.00,,---,0.00,VWS V13.01,2013-11-21 02:42:00,
2013-11-20 21:47:00,41.9,26.5,30.17,East,93,4.0,7.4,54,0.00,,---,0.00,VWS V13.01,2013-11-21 02:47:00,
2013-11-20 21:52:00,42.1,26.6,30.17,East,83,5.4,6.3,54,0.00,,---,0.00,VWS V13.01,2013-11-21 02:52:00,
2013-11-20 21:57:00,42.3,26.8,30.17,East,86,4.5,6.7,54,0.00,,---,0.00,VWS V13.01,2013-11-21 02:57:00,
2013-11-20 22:02:00,42.4,26.5,30.17,East,88,4.0,6.9,53,0.00,,---,0.00,VWS V13.01,2013-11-21 03:02:00,
2013-11-20 22:07:00,42.6,26.7,30.17,ESE,110,4.0,6.7,53,0.00,,---,0.00,VWS V13.01,2013-11-21 03:07:00,
2013-11-20 22:12:00,42.6,26.7,30.17,East,93,4.9,5.8,53,0.00,,---,0.00,VWS V13.01,2013-11-21 03:12:00,
2013-11-20 22:17:00,42.8,26.4,30.17,SE,137,6.7,8.3,52,0.00,,---,0.00,VWS V13.01,2013-11-21 03:17:00,
2013-11-20 22:22:00,43.0,26.6,30.17,SSW,193,3.1,6.3,52,0.00,,---,0.00,VWS V13.01,2013-11-21 03:22:00,
2013-11-20 22:27:00,43.0,26.1,30.17,SSE,164,5.8,6.3,51,0.00,,---,0.00,VWS V13.01,2013-11-21 03:27:00,
2013-11-20 22:32:00,43.0,26.1,30.17,SSE,167,3.6,4.9,51,0.00,,---,0.00,VWS V13.01,2013-11-21 03:32:00,
2013-11-20 22:37:00,42.8,26.4,30.20,South,181,3.6,4.5,52,0.00,,---,0.00,VWS V13.01,2013-11-21 03:37:00,
2013-11-20 22:42:00,42.8,26.4,30.20,South,183,5.4,5.4,52,0.00,,---,0.00,VWS V13.01,2013-11-21 03:42:00,
2013-11-20 22:47:00,42.8,26.4,30.20,South,186,2.7,4.9,52,0.00,,---,0.00,VWS V13.01,2013-11-21 03:47:00,
2013-11-20 22:53:00,42.8,26.4,30.20,South,187,4.5,4.9,52,0.00,,---,0.00,VWS V13.01,2013-11-21 03:53:00,
2013-11-20 22:58:00,43.0,26.6,30.20,South,186,4.0,4.0,52,0.00,,---,0.00,VWS V13.01,2013-11-21 03:58:00,
2013-11-20 23:03:00,43.2,26.7,30.20,SE,135,4.5,4.5,52,0.00,,---,0.00,VWS V13.01,2013-11-21 04:03:00,
2013-11-20 23:08:00,43.3,26.9,30.20,SE,143,3.6,5.4,52,0.00,,---,0.00,VWS V13.01,2013-11-21 04:08:00,
2013-11-20 23:14:00,43.3,26.4,30.20,SE,143,2.7,3.1,51,0.00,,---,0.00,VWS V13.01,2013-11-21 04:14:00,
2013-11-20 23:19:00,43.3,26.4,30.20,SE,143,0.0,0.0,51,0.00,,---,0.00,VWS V13.01,2013-11-21 04:19:00,
2013-11-20 23:24:00,43.3,26.4,30.20,SE,143,0.0,0.0,51,0.00,,---,0.00,VWS V13.01,2013-11-21 04:24:00,
2013-11-20 23:29:00,43.3,26.9,30.20,SE,143,0.0,0.0,52,0.00,,---,0.00,VWS V13.01,2013-11-21 04:29:00,
2013-11-20 23:34:00,43.5,27.1,30.20,SE,143,0.0,0.0,52,0.00,,---,0.00,VWS V13.01,2013-11-21 04:34:00,
2013-11-20 23:39:00,43.5,27.1,30.20,SE,143,0.0,0.0,52,0.00,,---,0.00,VWS V13.01,2013-11-21 04:39:00,
2013-11-20 23:44:00,43.7,27.2,30.20,SE,143,0.0,0.0,52,0.00,,---,0.00,VWS V13.01,2013-11-21 04:44:00,
2013-11-20 23:49:00,43.7,27.2,30.20,SE,143,0.0,0.0,52,0.00,,---,0.00,VWS V13.01,2013-11-21 04:49:00,
2013-11-20 23:54:00,43.7,27.2,30.20,SE,143,0.0,0.0,52,0.00,,---,0.00,VWS V13.01,2013-11-21 04:54:00,
2013-11-20 23:59:00,43.7,27.2,30.20,SE,143,0.0,0.0,52,0.00,,---,0.00,VWS V13.01,2013-11-21 04:59:00,